Weather History for New York Downtown Manhattan/w, NY

Change the Weather History Date:

Monday, September 16, 2013

  Actual Average (KNYC) Record (KNYC)
Temperature  
Mean Temperature 68 °F 68 °F  
Max Temperature 73 °F 75 °F 93 °F (1915)
Min Temperature 62 °F 61 °F 47 °F (1966)
Degree Days  
Heating Degree Days 0 1  
Month to date heating degree days 7  
Since 1 July heating degree days 9  
Cooling Degree Days 2 4  
Month to date cooling degree days 96  
Year to date cooling degree days 1050  
Growing Degree Days 18 (Base 50)    
Moisture  
Dew Point 55 °F    
Average Humidity 68    
Maximum Humidity 94    
Minimum Humidity 46    
Precipitation  
Precipitation 0.06 in 0.15 in 5.02 in (1999)
Month to date precipitation 2.17  
Year to date precipitation 35.41  
Snow  
Snow 0.00 in 0.00 in 0.00 in (2002)
Month to date snowfall 0.0  
Since 1 July snowfall 0.0  
Snow Depth -    
Sea Level Pressure  
Sea Level Pressure 30.10 in    
Wind  
Wind Speed 5 mph (WSW)    
Max Wind Speed 13 mph    
Max Gust Speed 46 mph    
Visibility 10 miles    
Events      
T = Trace of Precipitation, MM = Missing Value Source: NWS Daily Summary

Daily Weather History Graph

Daily Weather History Graph

Search for Another Location

Airport:

Trip Planner

Search our weather history database for the weather conditions in past years. The results will help you decide how hot, cold, wet, or windy it might be!

Date:

Astronomy

Sep. 16, 2013 Rise Set
Actual Time 6:37 AM EDT 7:02 PM EDT
Civil Twilight 6:10 AM EDT 7:30 PM EDT
Nautical Twilight 5:38 AM EDT 8:02 PM EDT
Astronomical Twilight 5:05 AM EDT 8:35 PM EDT
Moon 5:10 PM EDT (9/16) 3:20 AM EDT (9/16)
Length of Visible Light 13h 19m
Length of Day
12h 25m
Waxing Gibbous, 90% of the Moon is Illuminated
Sep 16
Waxing Gibbous
Sep 19
Full
Sep 26
Last Quarter
Oct 4
New
Oct 11
First Quarter

Hourly Weather History & Observations

Time (EDT) Temp. Dew Point Humidity Pressure Visibility Wind Dir Wind Speed Gust Speed Precip Events Conditions
12:15 AM 64.4 °F 55.4 °F 73% 30.11 in 10.0 mi WSW 8.1 mph - N/A   Clear
12:35 AM 64.4 °F 55.4 °F 73% 30.10 in 10.0 mi WSW 8.1 mph - N/A   Clear
12:55 AM 64.4 °F 55.4 °F 73% 30.10 in 10.0 mi WSW 5.8 mph - N/A   Clear
1:15 AM 64.4 °F 55.4 °F 73% 30.09 in 10.0 mi WSW 4.6 mph - N/A   Clear
1:35 AM 64.4 °F 57.2 °F 77% 30.09 in 10.0 mi WSW 4.6 mph - N/A   Clear
1:55 AM 64.4 °F 57.2 °F 77% 30.09 in 10.0 mi WSW 5.8 mph - N/A   Clear
2:15 AM 64.4 °F 57.2 °F 77% 30.09 in 10.0 mi WSW 5.8 mph - N/A   Clear
2:35 AM 64.4 °F 57.2 °F 77% 30.08 in 10.0 mi SW 4.6 mph - N/A   Scattered Clouds
2:55 AM 64.4 °F 57.2 °F 77% 30.07 in 10.0 mi West 4.6 mph - N/A   Partly Cloudy
3:15 AM 64.4 °F 57.2 °F 77% 30.07 in 10.0 mi WSW 4.6 mph - N/A   Mostly Cloudy
3:35 AM 64.4 °F 57.2 °F 77% 30.07 in 10.0 mi West 5.8 mph - N/A   Mostly Cloudy
3:55 AM 64.4 °F 57.2 °F 77% 30.07 in 10.0 mi West 8.1 mph - N/A   Overcast
4:15 AM 64.4 °F 57.2 °F 77% 30.06 in 10.0 mi West 8.1 mph - N/A   Overcast
4:35 AM 64.4 °F 57.2 °F 77% 30.06 in 10.0 mi WSW 8.1 mph - N/A   Mostly Cloudy
4:55 AM 64.4 °F 57.2 °F 77% 30.05 in 10.0 mi WSW 6.9 mph - N/A   Mostly Cloudy
5:15 AM 64.4 °F 57.2 °F 77% 30.05 in 10.0 mi West 6.9 mph - N/A   Mostly Cloudy
5:35 AM 64.4 °F 59.0 °F 83% 30.05 in 10.0 mi WSW 8.1 mph - N/A   Overcast
5:55 AM 64.4 °F 59.0 °F 83% 30.06 in 10.0 mi West 8.1 mph - N/A   Overcast
6:15 AM 64.4 °F 59.0 °F 83% 30.06 in 10.0 mi West 8.1 mph - N/A   Overcast
6:35 AM 64.4 °F 57.2 °F 77% 30.06 in 10.0 mi Calm Calm - N/A   Mostly Cloudy
6:55 AM 64.4 °F 59.0 °F 83% 30.07 in 10.0 mi West 5.8 mph - N/A   Scattered Clouds
7:15 AM 64.4 °F 59.0 °F 83% 30.07 in 10.0 mi West 5.8 mph - N/A   Partly Cloudy
7:35 AM 64.4 °F 57.2 °F 77% 30.08 in 10.0 mi WSW 6.9 mph - N/A   Clear
7:55 AM 64.4 °F 57.2 °F 77% 30.07 in 10.0 mi WSW 6.9 mph - N/A   Partly Cloudy
8:15 AM 62.6 °F 59.0 °F 88% 30.06 in 10.0 mi West 5.8 mph - N/A   Mostly Cloudy
8:35 AM 62.6 °F 59.0 °F 88% 30.08 in 8.0 mi West 8.1 mph - N/A   Overcast
8:55 AM 62.6 °F 60.8 °F 94% 30.07 in 10.0 mi Calm Calm - 0.01 in   Mostly Cloudy
9:15 AM 64.4 °F 59.0 °F 83% 30.09 in 10.0 mi Calm Calm - 0.01 in   Mostly Cloudy
9:35 AM 64.4 °F 59.0 °F 83% 30.10 in 10.0 mi NE 5.8 mph - 0.01 in   Overcast
9:55 AM 64.4 °F 59.0 °F 83% 30.09 in 10.0 mi ENE 6.9 mph - 0.02 in   Overcast
10:15 AM 64.4 °F 57.2 °F 77% 30.10 in 10.0 mi East 3.5 mph - N/A   Mostly Cloudy
10:35 AM 64.4 °F 55.4 °F 73% 30.10 in 10.0 mi East 5.8 mph 17.3 mph N/A   Overcast
10:55 AM 64.4 °F 53.6 °F 68% 30.10 in 10.0 mi NE 6.9 mph - 0.01 in   Overcast
11:15 AM 64.4 °F 53.6 °F 68% 30.10 in 10.0 mi NE 6.9 mph - N/A   Mostly Cloudy
11:35 AM 66.2 °F 55.4 °F 68% 30.09 in 10.0 mi NNE 10.4 mph 46.0 mph 0.01 in   Overcast
11:55 AM 66.2 °F 55.4 °F 68% 30.09 in 10.0 mi Calm Calm - 0.01 in   Mostly Cloudy
12:15 PM 66.2 °F 55.4 °F 68% 30.09 in 10.0 mi ENE 5.8 mph - N/A   Mostly Cloudy
12:35 PM 66.2 °F 53.6 °F 64% 30.09 in 10.0 mi Calm Calm - N/A   Mostly Cloudy
12:55 PM 66.2 °F 53.6 °F 64% 30.08 in 10.0 mi Calm Calm - N/A   Mostly Cloudy
1:15 PM 68.0 °F 53.6 °F 60% 30.08 in 10.0 mi Calm Calm - N/A   Scattered Clouds
1:35 PM 69.8 °F 51.8 °F 53% 30.08 in 10.0 mi ESE 3.5 mph - N/A   Partly Cloudy
1:55 PM 71.6 °F 51.8 °F 50% 30.07 in 10.0 mi South 4.6 mph - N/A   Partly Cloudy
2:15 PM 73.4 °F 51.8 °F 47% 30.07 in 10.0 mi South 5.8 mph - N/A   Scattered Clouds
2:35 PM 71.6 °F 50.0 °F 46% 30.07 in 10.0 mi SSW 4.6 mph - N/A   Mostly Cloudy
2:55 PM 73.4 °F 51.8 °F 47% 30.07 in 10.0 mi North 4.6 mph - N/A   Mostly Cloudy
3:15 PM 73.4 °F 51.8 °F 47% 30.06 in 10.0 mi ENE 9.2 mph - N/A   Mostly Cloudy
3:35 PM 73.4 °F 51.8 °F 47% 30.06 in 10.0 mi Calm Calm - N/A   Mostly Cloudy
3:55 PM 71.6 °F 53.6 °F 53% 30.06 in 10.0 mi NE 12.7 mph 27.6 mph 0.01 in   Overcast
4:15 PM 71.6 °F 53.6 °F 53% 30.07 in 10.0 mi NNE 5.8 mph - N/A   Overcast
4:35 PM 71.6 °F 51.8 °F 50% 30.07 in 10.0 mi Calm Calm - N/A   Overcast
4:55 PM 71.6 °F 53.6 °F 53% 30.07 in 10.0 mi NE 6.9 mph - N/A   Overcast
5:15 PM 71.6 °F 53.6 °F 53% 30.08 in 10.0 mi South 4.6 mph - N/A   Overcast
5:35 PM 71.6 °F 53.6 °F 53% 30.08 in 10.0 mi NNW 3.5 mph - N/A   Overcast
5:55 PM 71.6 °F 51.8 °F 50% 30.09 in 10.0 mi WSW 3.5 mph - N/A   Overcast
6:15 PM 69.8 °F 53.6 °F 56% 30.10 in 10.0 mi Calm Calm - N/A   Overcast
6:35 PM 69.8 °F 50.0 °F 49% 30.11 in 10.0 mi Calm Calm - N/A   Overcast
6:55 PM 69.8 °F 50.0 °F 49% 30.11 in 10.0 mi SSE 3.5 mph - N/A   Overcast
7:15 PM 69.8 °F 53.6 °F 56% 30.12 in 10.0 mi Calm Calm - N/A   Overcast
7:35 PM 68.0 °F 53.6 °F 60% 30.12 in 10.0 mi Calm Calm - N/A   Overcast
7:55 PM 68.0 °F 53.6 °F 60% 30.13 in 10.0 mi SE 3.5 mph - N/A   Overcast
8:15 PM 68.0 °F 53.6 °F 60% 30.14 in 10.0 mi NW 3.5 mph - N/A   Overcast
8:35 PM 66.2 °F 53.6 °F 64% 30.15 in 10.0 mi Calm Calm - N/A   Overcast
8:55 PM 66.2 °F 53.6 °F 64% 30.16 in 10.0 mi Calm Calm - N/A   Mostly Cloudy
9:15 PM 66.2 °F 53.6 °F 64% 30.17 in 10.0 mi Calm Calm - N/A   Partly Cloudy
9:35 PM 66.2 °F 53.6 °F 64% 30.18 in 10.0 mi Calm Calm - N/A   Clear
9:55 PM 64.4 °F 53.6 °F 68% 30.19 in 10.0 mi Calm Calm - N/A   Clear
10:15 PM 64.4 °F 53.6 °F 68% 30.20 in 10.0 mi ENE 4.6 mph - N/A   Mostly Cloudy
10:35 PM 64.4 °F 53.6 °F 68% 30.20 in 10.0 mi East 4.6 mph - N/A   Partly Cloudy
10:55 PM 64.4 °F 53.6 °F 68% 30.21 in 10.0 mi ENE 8.1 mph 23.0 mph N/A   Clear
11:15 PM 62.6 °F 53.6 °F 72% 30.22 in 10.0 mi NE 12.7 mph 20.7 mph N/A   Scattered Clouds
11:35 PM 62.6 °F 53.6 °F 72% 30.23 in 10.0 mi NE 8.1 mph 18.4 mph N/A   Scattered Clouds
11:55 PM 62.6 °F 50.0 °F 63% 30.24 in 10.0 mi ENE 11.5 mph 20.7 mph N/A   Partly Cloudy